Regional Weather Roundup
Issued by NWS Sioux Falls, SD

Home | Current Version | Previous Version | Text Only | Print | Product List | Glossary Off
Versions: 1 2 3 4 5 6 7 8 9 10 11 12 13 14 15 16 17 18 19 20 21 22 23 24 25 26 27 28 29 30 31 32 33 34 35 36 37 38 39 40 41 42 43 44 45 46 47 48 49 50

000
ASUS43 KFSD 290110
RWRFSD

WEATHER ROUNDUP FOR SE SOUTH DAKOTA/SW MINNESOTA/NW IOWA
NATIONAL WEATHER SERVICE SIOUX FALLS SD
800 PM CDT FRI AUG 28 2015

NOTE: "FAIR" INDICATES FEW OR NO CLOUDS BELOW 12,000 FEET WITH NO
SIGNIFICANT WEATHER AND OR OBSTRUCTIONS TO VISIBILITY.


SDZ038>040-050-052>070-290200-
SOUTHEAST SOUTH DAKOTA

CITY           SKY/WX    TMP DP  RH WIND       PRES   REMARKS
BROOKINGS      CLEAR     68  61  77 E6        30.01S
CHAMBERLAIN    CLEAR     71  67  85 CALM      29.98S
HURON          CLEAR     74  66  76 SE8       29.95R
MADISON        FAIR      64  64 100 E5        30.00R
MITCHELL       CLEAR     70  66  87 SE6       29.97R
SIOUX FALLS    CLOUDY    65  59  81 E9        29.99R
WINNER         FAIR      74  65  73 SE6       29.99S
YANKTON        CLEAR     66  61  82 NE6       29.96R
$$

MNZ071-072-080-081-089-090-097-098-290200-
SOUTHWEST MINNESOTA

CITY           SKY/WX    TMP DP  RH WIND       PRES   REMARKS
FAIRMONT       CLOUDY    61  52  72 E9        29.99R
JACKSON        CLOUDY    61  57  88 E9        30.00R
LUVERNE        MOCLDY    64  57  77 NE5       30.01R
MARSHALL       CLEAR     64  55  72 SE6       30.01S
MONTEVIDEO     CLEAR     66  61  82 S6        30.01R
PIPESTONE      CLEAR     63  57  82 E5        30.00S
REDWOOD FALLS  MOCLDY    66  59  78 SE6       30.00R
TRACY          CLOUDY    66  60  82 SE5       30.01R
WINDOM         CLOUDY    63  55  77 E9        30.00R
WORTHINGTON    CLOUDY    61  55  82 E9        30.00R
$$

IAZ001>003-012>014-020>022-031-032-NEZ013-014-SDZ071-290200-
NORTHWEST IOWA

CITY           SKY/WX    TMP DP  RH WIND       PRES   REMARKS
CHEROKEE       CLOUDY    60  60 100 NE8       29.95R
DENISON        CLOUDY    64  63  94 N13       29.88R
ESTHERVILLE    CLOUDY    59  57  93 NE12      29.97R
LE MARS        CLOUDY    63  61  94 N9G16     29.97R
ORANGE CITY    CLOUDY    61  59  94 NE5       29.98R
SHELDON        CLOUDY    61  59  94 NE9       29.97R
SIOUX CITY     CLOUDY    64  59  83 N13       29.94R
SPENCER        CLOUDY    61  57  87 NE12      29.98R
STORM LAKE     FOG       61  61 100 NE16      29.94R VSB 1
$$

ABBREVIATIONS USED IN REMARKS
   TC - TEMPERATURE IN CELSIUS
  WCI - WIND CHILL INDEX
   HX - HEAT INDEX
  VSB - VISIBILITY



USA.gov is the U.S. government's official web portal to all federal, state and local government web resources and services.